Mobridge, SD

2:01 PM CDT on September 18, 2019 (GMT -0500)
Mobridge Municipal

Weather History for KMBG - August, 2019

Change the Weather History Date:

Wednesday, August 21, 2019

  Actual Average Record
Temperature  
Mean Temperature 70 °F 71 °F  
Max Temperature 81 °F 84 °F 105 °F (1947)
Min Temperature 58 °F 57 °F 44 °F (1920)
Degree Days  
Heating Degree Days 0    
Month to date heating degree days 5  
Since 1 June heating degree days 45  
Since 1 July heating degree days 5  
Cooling Degree Days 5    
Month to date cooling degree days 132  
Year to date cooling degree days 539  
Since 1 June cooling degree days 525  
Growing Degree Days 20 (Base 50)    
Moisture  
Dew Point 54 °F    
Average Humidity 57    
Maximum Humidity 84    
Minimum Humidity 30    
Precipitation  
Precipitation 0.01 in 0.06 in 1.90 in (1930)
Month to date precipitation 2.47 1.44  
Year to date precipitation 19.78 13.32  
Snow  
Snow 0.00 in - - ()
Month to date snowfall 0.0  
Since 1 July snowfall 0.0  
Snow Depth 0.00 in    
Sea Level Pressure  
Sea Level Pressure 30.08 in    
Wind  
Wind Speed 5 mph (East)    
Max Wind Speed 16 mph    
Max Gust Speed 21 mph    
Visibility 10 miles    
Events      
T = Trace of Precipitation, MM = Missing Value Source: NWS Daily Summary

Daily Weather History Graph

Daily Weather History Graph

Search for Another Location

Airport or City:

Astronomy

Aug. 21, 2019 Rise Set
Actual Time 6:49 AM CDT 8:39 PM CDT
Civil Twilight 6:17 AM CDT 9:11 PM CDT
Nautical Twilight 5:38 AM CDT 9:49 PM CDT
Astronomical Twilight 4:56 AM CDT 10:31 PM CDT
Moon 11:40 PM CDT (8/21) 12:43 PM CDT (8/21)
Length of Visible Light 14h 53m
Length of Day
13h 50m
Waning Gibbous, 69% of the Moon is Illuminated
Aug 21
Waning Gibbous
Aug 23
Last Quarter
Aug 30
New
Sep 5
First Quarter
Sep 13
Full

Hourly Weather History & Observations

Time (CDT) Temp. Dew Point Humidity Pressure Visibility Wind Dir Wind Speed Gust Speed Precip Events Conditions
12:52 AM 64.9 °F 53.1 °F 65% 30.09 in 10.0 mi ENE 12.7 mph - N/A   Clear
1:52 AM 64.0 °F 53.1 °F 67% 30.09 in 10.0 mi ENE 10.4 mph - N/A   Clear
2:52 AM 62.1 °F 55.9 °F 80% 30.10 in 10.0 mi WSW 3.5 mph - 0.01 in   Scattered Clouds
3:52 AM 60.1 °F 55.9 °F 86% 30.09 in 10.0 mi WNW 5.8 mph - N/A   Clear
4:52 AM 60.1 °F 55.9 °F 86% 30.09 in 10.0 mi NE 3.5 mph - N/A   Clear
5:52 AM 61.0 °F 55.9 °F 83% 30.08 in 10.0 mi Calm Calm - N/A   Scattered Clouds
6:52 AM 59.0 °F 53.1 °F 81% 30.07 in 10.0 mi ESE 5.8 mph - N/A   Clear
7:52 AM 62.1 °F 55.9 °F 80% 30.14 in 10.0 mi East 3.5 mph - N/A   Partly Cloudy
8:52 AM 66.0 °F 57.9 °F 75% 30.17 in 10.0 mi SW 5.8 mph - N/A   Clear
9:52 AM 69.1 °F 57.0 °F 65% 30.17 in 10.0 mi WSW 4.6 mph - N/A   Clear
10:52 AM 73.0 °F 57.0 °F 57% 30.15 in 10.0 mi Variable 4.6 mph - N/A   Clear
11:52 AM 75.0 °F 57.0 °F 53% 30.13 in 10.0 mi NW 4.6 mph - N/A   Clear
12:52 PM 75.9 °F 54.0 °F 46% 30.12 in 10.0 mi WNW 6.9 mph - N/A   Clear
1:52 PM 77.0 °F 50.0 °F 39% 30.09 in 10.0 mi SW 4.6 mph - N/A   Clear
2:52 PM 80.1 °F 51.1 °F 36% 30.09 in 10.0 mi Variable 4.6 mph - N/A   Clear
3:52 PM 80.1 °F 51.1 °F 36% 30.07 in 10.0 mi Calm Calm - N/A   Clear
4:52 PM 80.1 °F 46.9 °F 31% 30.06 in 10.0 mi Calm Calm - N/A   Clear
5:52 PM 79.0 °F 53.1 °F 40% 30.03 in 10.0 mi SSE 4.6 mph - N/A   Clear
6:52 PM 79.0 °F 48.9 °F 35% 30.01 in 10.0 mi ESE 3.5 mph - N/A   Clear
7:52 PM 73.9 °F 59.0 °F 59% 30.01 in 10.0 mi NE 5.8 mph - N/A   Clear
8:52 PM 66.9 °F 55.9 °F 68% 30.01 in 10.0 mi ENE 5.8 mph - N/A   Clear
9:52 PM 68.0 °F 57.0 °F 68% 30.03 in 10.0 mi ENE 10.4 mph - N/A   Clear
10:52 PM 63.0 °F 55.9 °F 78% 30.04 in 10.0 mi East 8.1 mph - N/A   Clear
11:52 PM 63.0 °F 55.9 °F 78% 30.04 in 10.0 mi East 6.9 mph - N/A   Clear